Stations météo

réclame
Mon MeteoGroup
Saint-Brieuc, France (7120): Température de l'air & dewpoint: 11.12.2018 06:00:00 - 17.12.2018 06:00:00 (CET)Saint-Brieuc, France (7120): Température de l'air 5cm: 11.12.2018 06:00:00 - 17.12.2018 06:00:00 (CET)Saint-Brieuc, France (7120): Température de l'air -20cm & Température de l'air -100cm: 11.12.2018 06:00:00 - 17.12.2018 06:00:00 (CET)Saint-Brieuc, France (7120): Vitesse du vent & gusts: 11.12.2018 06:00:00 - 17.12.2018 06:00:00 (CET)Saint-Brieuc, France (7120): Direction du vent: 11.12.2018 06:00:00 - 17.12.2018 06:00:00 (CET)Saint-Brieuc, France (7120): reduced air pressure: 11.12.2018 06:00:00 - 17.12.2018 06:00:00 (CET)Saint-Brieuc, France (7120): visibility: 11.12.2018 06:00:00 - 17.12.2018 06:00:00 (CET)Saint-Brieuc, France (7120): Ensoleillement: 11.12.2018 06:00:00 - 17.12.2018 06:00:00 (CET)Saint-Brieuc, France (7120): Quantités de précipitations: 11.12.2018 06:00:00 - 17.12.2018 06:00:00 (CET)
Date & Time tt [°C] td [°C] tt 5cm [°C] tt -20cm [°C] tt -100cm [°C] ff [km/h] ff [knt] fx [km/h] fx [knt] dd ppp [hPa] vv [km] sd [min] rr [mm]
17.12.2018 06:00:00 6,0 4,2 4,9 6,8 10,0 15 8 28 15 WSW 1018,6 20 0 0,0
17.12.2018 05:00:00 6,0 4,3 4,7 6,8 10,0 17 9 28 15 WSW 1018,2 20 0 0,0
17.12.2018 04:00:00 5,9 4,1 4,7 6,9 10,0 14 8 24 13 SW 1017,7 20 0 0,0
17.12.2018 03:00:00 5,8 4,0 4,7 6,9 10,0 13 7 24 13 WSW 1017,2 20 0 0,0
17.12.2018 02:00:00 6,3 4,1 5,1 7,0 10,0 17 9 28 15 WSW 1016,2 20 0 0,0
17.12.2018 01:00:00 6,5 4,7 5,0 7,0 10,0 19 11 31 17 WSW 1015,5 20 0 0,2
17.12.2018 00:00:00 6,4 4,4 4,6 7,0 10,0 17 9 41 22 WSW 1014,8 20 0 0,0
16.12.2018 23:00:00 6,4 4,2 4,0 7,1 10,0 18 10 28 15 WSW 1013,9 20 0 0,0
16.12.2018 22:00:00 5,9 3,9 3,9 7,1 10,0 7 4 40 21 WSW 1012,9 20 0 0,4
16.12.2018 21:00:00 6,7 4,7 5,8 7,2 10,1 20 11 32 17 WSW 1011,8 20 0 0,0
16.12.2018 20:00:00 6,7 4,9 5,9 7,2 10,1 23 12 33 18 WSW 1010,5 20 0 0,0
16.12.2018 19:00:00 7,1 5,4 6,4 7,2 10,1 22 12 35 19 WSW 1009,2 20 0 0,0
16.12.2018 18:00:00 7,7 5,7 7,0 7,1 10,1 20 11 32 17 WSW 1007,8 20 0 0,0
16.12.2018 17:00:00 7,9 5,7 7,4 7,1 10,1 16 9 32 17 WSW 1006,8 20 0 0,0
16.12.2018 16:00:00 8,0 6,3 7,1 7,0 10,1 14 8 39 21 SW 1006,2 20 0 0,6
16.12.2018 15:00:00 8,0 6,1 7,2 6,9 10,1 16 9 37 20 SSW 1006,1 16 0 1,4
16.12.2018 14:00:00 8,2 6,3 7,4 6,9 10,1 16 8 35 19 SSW 1006,4 14 0 0,4
16.12.2018 13:00:00 8,6 6,9 7,9 6,8 10,1 17 9 33 18 S 1007,3 12 0 0,4
16.12.2018 12:00:00 8,2 6,8 7,4 6,7 10,1 19 10 37 20 S 1007,9 19 0 0,0
16.12.2018 11:00:00 7,1 6,5 5,6 6,8 10,1 12 6 21 12 S 1008,7 20 0 0,0
16.12.2018 10:00:00 5,5 5,2 4,0 6,8 10,1 12 7 19 10 S 1009,1 15 18 0,0
16.12.2018 09:00:00 5,0 4,3 3,7 6,9 10,1 13 7 20 11 S 1009,6 18 0 0,0
16.12.2018 08:00:00 5,1 4,2 2,1 6,9 10,2 10 6 16 9 S 1009,5 20 0 0,0
16.12.2018 07:00:00 6,5 4,8 5,0 7,0 10,2 9 5 21 11 SSW 1009,8 20 0 0,0
16.12.2018 06:00:00 6,4 4,9 5,3 7,0 10,2 13 7 22 12 SW 1009,9 20 0 0,0
16.12.2018 05:00:00 7,0 5,5 5,7 7,0 10,2 11 6 24 13 SSW 1010,2 20 0 0,0
16.12.2018 04:00:00 7,4 5,5 5,8 7,1 10,2 16 9 30 16 WSW 1010,2 20 0 0,0
16.12.2018 03:00:00 7,2 6,0 5,6 7,1 10,2 11 6 21 11 SW 1010,3 18 0 0,0
16.12.2018 02:00:00 7,1 5,7 5,9 7,2 10,3 10 6 23 12 SW 1010,2 18 0 0,0
16.12.2018 01:00:00 7,6 6,1 5,9 7,2 10,3 13 7 24 13 SW 1009,8 19 0 0,0
16.12.2018 00:00:00 7,2 5,8 5,8 7,2 10,3 10 6 19 11 SSW 1010,0 16 0 0,0
15.12.2018 23:00:00 7,8 5,6 6,7 7,3 10,3 12 7 25 13 SW 1009,5 20 0 0,0
15.12.2018 22:00:00 8,6 6,4 7,0 7,3 10,3 16 9 26 14 WSW 1009,3 19 0 0,0
15.12.2018 21:00:00 8,9 6,7 7,3 7,2 10,3 19 10 35 19 W 1008,8 16 0 0,0
15.12.2018 20:00:00 9,8 6,7 8,8 7,1 10,3 22 12 37 20 W 1007,7 17 0 0,0
15.12.2018 19:00:00 10,9 7,6 9,8 6,9 10,3 23 13 53 29 W 1006,6 17 0 0,0
15.12.2018 18:00:00 12,5 10,6 11,3 6,7 10,4 28 15 56 30 W 1005,3 20 0 1,0
15.12.2018 17:00:00 13,5 12,4 10,6 6,6 10,4 20 11 39 21 SW 1004,5 6 0 0,6
15.12.2018 16:00:00 10,7 10,4 9,3 6,4 10,4 13 7 27 15 S 1005,0 14 0 0,6
15.12.2018 15:00:00 9,3 9,0 8,4 6,3 10,4 18 10 36 19 S 1006,0 7 0 0,0
15.12.2018 14:00:00 8,1 7,7 7,0 6,1 10,4 19 10 42 23 S 1007,1 10 0 0,0
15.12.2018 13:00:00 6,9 6,5 5,8 6,1 10,4 23 12 47 26 S 1008,3 6 0 0,4
15.12.2018 12:00:00 5,7 5,1 5,1 6,0 10,4 26 14 51 28 S 1010,0 20 0 0,0
15.12.2018 11:00:00 5,1 4,5 4,3 6,0 10,4 28 15 55 30 S 1010,6 5 0 0,0
15.12.2018 10:00:00 4,5 3,8 4,0 5,9 10,4 28 15 54 29 S 1011,2 17 0 0,0
15.12.2018 09:00:00 4,1 3,5 3,5 5,9 10,4 28 15 55 30 S 1011,8 8 0 0,6
15.12.2018 08:00:00 3,7 3,3 3,3 5,9 10,5 27 15 51 28 S 1012,4 6 0 1,4
15.12.2018 07:00:00 3,3 2,9 2,7 5,9 10,5 25 13 51 28 SSE 1012,9 3,6 0 0,0
15.12.2018 06:00:00 2,7 2,3 2,6 5,9 10,5 29 15 45 24 SSE 1013,6 2,9 0 0,6
15.12.2018 05:00:00 2,8 2,2 2,4 5,9 10,5 18 10 36 19 SSE 1014,9 3,0 0 1,6
15.12.2018 04:00:00 2,6 2,0 2,0 5,9 10,5 22 12 37 20 SSE 1015,9 2,7 0 0,6
15.12.2018 03:00:00 2,5 1,5 2,2 5,9 10,5 23 12 37 20 SSE 1016,9 3,9 0 0,0
15.12.2018 02:00:00 2,6 1,1 2,5 5,9 10,5 22 12 36 19 SSE 1017,6 4,9 0 0,0
15.12.2018 01:00:00 2,5 0,6 2,5 6,0 10,5 22 12 37 20 SSE 1018,5 5 0 0,0
15.12.2018 00:00:00 2,7 0,4 2,4 6,0 10,5 21 11 34 19 SSE 1019,4 7 0 0,0
14.12.2018 23:00:00 2,4 -0,4 2,1 6,0 10,5 21 12 36 20 S 1019,9 9 0 0,0
14.12.2018 22:00:00 2,3 -0,8 2,2 6,0 10,6 22 12 34 18 S 1020,4 10 0 0,0
14.12.2018 21:00:00 2,4 -1,0 2,4 6,0 10,6 15 8 30 16 S 1021,0 11 0 0,0
14.12.2018 20:00:00 2,4 -1,2 2,3 6,0 10,6 16 8 33 18 S 1021,0 12 0 0,0
14.12.2018 19:00:00 2,5 -1,3 2,1 6,0 10,6 16 8 32 18 S 1021,0 15 0 0,0
14.12.2018 18:00:00 2,4 -1,4 2,2 6,0 10,6 13 7 26 14 S 1021,5 15 0 0,0
14.12.2018 17:00:00 2,4 -1,4 2,3 5,9 10,6 11 6 24 13 S 1021,2 16 0 0,0
14.12.2018 16:00:00 2,8 -1,9 3,0 5,9 10,6 11 6 24 13 S 1021,0 19 0 0,0
14.12.2018 15:00:00 2,7 -1,3 3,1 5,8 10,6 13 7 20 11 SSE 1021,1 15 0 0,0
14.12.2018 14:00:00 2,6 -1,6 3,1 5,7 10,7 10 5 19 10 S 1021,3 15 0 0,0
14.12.2018 13:00:00 2,1 -1,3 2,3 5,7 10,7 12 7 18 10 SSE 1021,0 13 0 0,0
14.12.2018 12:00:00 1,0 -1,9 1,6 5,7 10,7 11 6 17 9 SSE 1021,5 11 34 0,0
14.12.2018 11:00:00 0,4 -2,3 -0,5 5,8 10,7 8 4 16 9 S 1021,8 9 58 0,0
14.12.2018 10:00:00 -0,8 -2,4 -2,4 5,8 10,7 9 5 13 7 SE 1020,9 6 33 0,0
14.12.2018 09:00:00 -1,7 -2,8 -3,1 5,9 10,7 8 4 11 6 SE 1020,4 6 0 0,0
14.12.2018 08:00:00 -1,1 -2,7 -2,0 6,0 10,7 5 3 18 10 S 1020,1 8 0 0,0
14.12.2018 07:00:00 -0,5 -2,2 -0,9 6,0 10,7 10 5 21 11 SSE 1019,0 9 0 0,0
14.12.2018 06:00:00 -0,5 -2,1 -0,7 6,1 10,7 9 5 14 8 SE 1018,9 9 0 0,0
14.12.2018 05:00:00 -0,6 -2,0 -1,3 6,2 10,7 10 5 15 8 SE 1018,1 9 0 0,0
14.12.2018 04:00:00 -1,0 -2,1 -2,5 6,3 10,8 8 4 10 5 ESE 1018,1 8 0 0,0
14.12.2018 03:00:00 -0,8 -2,4 -2,5 6,3 10,7 4 2 13 7 ESE 1017,9 10 0 0,0
14.12.2018 02:00:00 0,3 -1,5 -0,5 6,4 10,8 7 4 10 5 SE 1017,2 12 0 0,0
14.12.2018 01:00:00 0,2 -1,6 -1,2 6,5 10,8 7 4 12 7 ESE 1017,1 12 0 0,0
14.12.2018 00:00:00 0,5 -1,6 -0,8 6,6 10,8 6 3 11 6 ESE 1016,7 11 0 0,0
13.12.2018 23:00:00 1,2 -1,4 0,2 6,7 10,8 6 3 16 9 ESE 1016,2 15 0 0,0
13.12.2018 22:00:00 1,8 -1,5 1,2 6,7 10,8 12 6 20 11 ESE 1015,2 16 0 0,0
13.12.2018 21:00:00 2,1 -1,2 1,0 6,8 10,8 10 5 18 10 ESE 1014,5 15 0 0,0
13.12.2018 20:00:00 2,5 -1,3 2,1 6,8 10,8 8 4 18 10 ESE 1013,8 15 0 0,0
13.12.2018 19:00:00 2,7 -1,7 2,6 6,8 10,8 10 5 21 12 ESE 1012,9 18 0 0,0
13.12.2018 18:00:00 2,8 -1,6 2,5 6,9 10,8 11 6 24 13 ESE 1012,0 19 0 0,0
13.12.2018 17:00:00 2,9 -1,5 2,7 6,9 10,8 14 7 24 13 ESE 1011,2 19 0 0,0
13.12.2018 16:00:00 3,0 -1,2 3,2 6,9 10,8 14 7 32 17 ESE 1010,5 18 0 0,0
13.12.2018 15:00:00 2,9 -0,7 2,9 6,9 10,8 15 8 33 18 ESE 1009,8 17 0 0,0
13.12.2018 14:00:00 2,6 -0,9 2,3 6,9 10,8 16 9 35 19 SE 1009,5 18 0 0,0
13.12.2018 13:00:00 2,1 -0,8 1,9 6,9 10,8 24 13 39 21 SE 1009,4 17 0 0,0
13.12.2018 12:00:00 1,7 -0,1 1,2 6,9 10,9 23 12 37 20 SE 1009,4 12 0 0,2
13.12.2018 11:00:00 1,6 0,0 1,3 7,0 10,9 22 12 37 20 SE 1009,3 12 0 0,0
13.12.2018 10:00:00 1,8 -0,1 1,5 7,0 10,9 20 11 31 17 SE 1008,9 13 0 0,0
13.12.2018 09:00:00 1,5 -0,3 1,4 7,1 10,9 22 12 42 23 SE 1008,6 13 0 0,0
13.12.2018 08:00:00 1,7 -0,4 1,6 7,1 10,9 23 13 39 21 SE 1008,2 18 0 0,0
13.12.2018 07:00:00 2,0 -0,1 1,9 7,2 10,9 22 12 39 21 SE 1008,0 20 0 0,0
13.12.2018 06:00:00 1,9 -0,2 1,9 7,3 10,9 22 12 37 20 SE 1008,2 20 0 0,0
13.12.2018 05:00:00 2,1 0,0 2,0 7,4 10,9 21 12 35 19 SE 1008,9 20 0 0,0
13.12.2018 04:00:00 2,0 -0,1 1,8 7,5 10,9 19 10 30 16 SE 1009,4 20 0 0,0
13.12.2018 03:00:00 2,1 -0,2 1,8 7,5 10,9 17 9 37 20 SE 1009,8 20 0 0,0
13.12.2018 02:00:00 2,5 0,1 2,3 7,6 10,9 22 12 41 22 SE 1010,1 20 0 0,0
13.12.2018 01:00:00 2,7 0,1 2,6 7,7 10,9 26 14 44 24 SE 1011,1 20 0 0,0
13.12.2018 00:00:00 3,1 0,7 2,9 7,8 11,0 26 14 41 22 SSE 1012,1 20 0 0,0
12.12.2018 23:00:00 3,1 1,0 2,9 7,9 11,0 16 9 31 17 SSE 1013,0 20 0 0,0
12.12.2018 22:00:00 3,2 1,4 2,9 8,0 10,9 19 10 29 16 SSE 1014,0 15 0 0,0
12.12.2018 21:00:00 3,3 1,8 2,9 8,0 10,9 18 10 32 17 SSE 1014,7 12 0 0,0
12.12.2018 20:00:00 3,5 2,3 2,9 8,1 11,0 12 6 19 10 SSE 1015,2 9 0 0,0
12.12.2018 19:00:00 3,7 2,8 3,0 8,2 11,0 8 4 19 11 S 1015,6 6 0 0,0
12.12.2018 18:00:00 4,6 3,6 4,2 8,2 11,0 13 7 27 14 SSE 1015,9 6 0 0,0
12.12.2018 17:00:00 5,1 3,8 4,8 8,2 11,0 18 10 28 15 SSE 1016,4 9 11 0,0
12.12.2018 16:00:00 5,4 4,7 5,5 8,2 11,0 14 8 25 14 S 1017,2 8 0 0,0
12.12.2018 15:00:00 5,7 4,8 6,0 8,1 11,0 12 7 23 12 S 1017,9 4,7 0 0,0
12.12.2018 14:00:00 5,8 5,1 6,1 8,1 11,0 13 7 23 12 S 1018,0 5 0 0,0
12.12.2018 13:00:00 5,7 4,7 6,0 8,0 11,0 12 6 21 11 SSE 1018,4 11 0 0,0
12.12.2018 12:00:00 5,4 4,5 5,7 8,0 11,0 13 7 23 12 SSE 1019,3 10 0 0,0
12.12.2018 11:00:00 5,2 4,5 5,1 8,0 11,0 15 8 28 15 S 1019,6 8 0 0,0
12.12.2018 10:00:00 4,8 4,2 4,5 8,0 11,1 11 6 22 12 S 1019,8 7 0 0,0
12.12.2018 09:00:00 4,6 4,0 4,4 8,0 11,1 14 7 22 12 SSE 1019,6 7 0 0,0
12.12.2018 08:00:00 4,5 3,8 4,3 8,1 11,1 14 8 24 13 SSE 1019,3 11 0 0,0
12.12.2018 07:00:00 4,6 3,9 4,3 8,1 11,1 11 6 26 14 S 1019,3 10 0 0,0
12.12.2018 06:00:00 4,8 3,9 4,5 8,1 11,1 16 8 29 16 S 1019,3 10 0 0,0
12.12.2018 05:00:00 4,8 3,9 4,5 8,2 11,1 15 8 32 17 S 1019,2 12 0 0,2
12.12.2018 04:00:00 5,0 4,3 4,8 8,2 11,1 18 10 29 16 S 1019,6 8 0 1,6
12.12.2018 03:00:00 5,6 5,0 5,3 8,2 11,1 17 9 33 18 SSE 1019,3 5 0 2,4
12.12.2018 02:00:00 6,0 5,1 5,6 8,2 11,1 15 8 33 18 S 1019,5 5 0 1,0
12.12.2018 01:00:00 5,9 4,9 5,4 8,3 11,1 20 11 31 17 SSE 1019,9 8 0 0,0
12.12.2018 00:00:00 6,0 4,8 5,5 8,3 11,1 13 7 23 12 SSE 1020,0 8 0 0,0
11.12.2018 23:00:00 6,6 5,2 6,1 8,3 11,1 14 7 31 17 SSE 1020,3 9 0 0,0
11.12.2018 22:00:00 6,7 5,5 6,0 8,3 11,1 10 6 31 17 SSE 1020,5 7 0 0,0
11.12.2018 21:00:00 6,3 5,3 5,6 8,3 11,1 18 10 28 15 SSE 1020,2 7 0 0,0
11.12.2018 20:00:00 6,2 5,2 5,4 8,4 11,1 11 6 23 12 S 1020,8 9 0 0,0
11.12.2018 19:00:00 6,2 5,0 5,6 8,4 11,2 18 10 29 16 SSE 1020,6 10 0 0,0
11.12.2018 18:00:00 6,5 4,7 5,5 8,4 11,1 11 6 19 10 SSE 1021,1 17 0 0,0
11.12.2018 17:00:00 7,4 4,9 6,8 8,3 11,2 10 5 29 15 SSE 1021,5 19 39 0,0
11.12.2018 16:00:00 8,1 4,9 8,5 8,2 11,1 12 7 32 17 S 1021,9 19 33 0,0
11.12.2018 15:00:00 8,7 5,3 9,4 8,1 11,2 13 7 27 15 S 1022,3 19 48 0,0
11.12.2018 14:00:00 8,5 5,2 9,6 8,0 11,2 21 11 35 19 SSE 1022,8 19 38 0,0
11.12.2018 13:00:00 8,7 5,6 10,2 7,9 11,2 15 8 32 17 SSE 1023,4 20 60 0,0
11.12.2018 12:00:00 8,0 5,5 8,1 7,9 11,2 16 9 28 15 SSE 1024,1 19 60 0,0
11.12.2018 11:00:00 6,6 4,8 4,4 7,9 11,2 15 8 26 14 S 1024,8 19 55 0,0
11.12.2018 10:00:00 4,8 3,8 2,7 7,9 11,2 8 4 15 8 SSE 1025,2 15 36 0,0
11.12.2018 09:00:00 4,0 3,3 1,2 8,0 11,2 8 5 14 7 S 1025,4 15 0 0,0
11.12.2018 08:00:00 3,7 3,1 1,3 8,1 11,2 7 4 9 5 SSE 1025,5 12 0 0,0
11.12.2018 07:00:00 4,5 3,9 2,1 8,2 11,2 6 4 11 6 S 1025,6 16 0 0,0
11.12.2018 06:00:00 4,2 3,6 2,4 8,2 11,2 8 4 11 6 S 1025,7 13 0 0,0

tt = Température de l'air
td = dewpoint
tt 5cm = Température de l'air 5cm
tt -20cm = Température de l'air -20cm
tt -100cm = Température de l'air -100cm
ff = Vitesse du vent
fx = gusts
dd = Direction du vent
ppp = reduced air pressure
vv = visibility
sd = Ensoleillement
rr = Quantités de précipitations

stations d'obs. à proximité